Torna al catalogo

STARLINK-32928

AttivoComunicazioniVLEO
NORAD 63564·PAYLOAD·🇺🇸 United States

Lanciato Apr 13, 2025 da Cape Canaveral Space Force Station

Loading…

Prossimi Passaggi (prossime 24 ore)

TLE

AggiornatoSource: CelesTrak SupGP

Epoca: Sep 14, 2026, 21:09 UTC

1 63564C 25075S   26257.88173611  .00006728  00000+0  24366-3 0  2573
2 63564  43.0009 281.9490 0001758 269.7384 122.1752 15.27575856    17

Traccia STARLINK-32928 in tempo reale con AllMySat

Download on the App Store